| time (UTC) | temp C | wind direction | speed KPH | gust KPH | rain 1hr cm | rain 24hr cm | rain mn cm | humidity % | barometer mb |
| 20260507191545 | 19 | 189 | 4.8 | 12.9 | 0.00 | 0.18 | 0.00 | 21 | 1015.2 |
| 20260507190036 | 18 | 257 | 1.6 | 9.7 | 0.00 | 0.30 | 0.00 | 22 | 1015.6 |
| 20260507184536 | 18 | 311 | 4.8 | 19.3 | 0.00 | 0.30 | 0.00 | 24 | 1016.0 |
| 20260507183038 | 18 | 298 | 6.4 | 19.3 | 0.00 | 0.30 | 0.00 | 27 | 1016.4 |
| 20260507181527 | 17 | 257 | 8.0 | 27.4 | 0.00 | 0.30 | 0.00 | 27 | 1016.8 |
| 20260507180024 | 17 | 231 | 11.3 | 25.7 | 0.00 | 0.38 | 0.00 | 29 | 1017.1 |
| 20260507174527 | 17 | 231 | 14.5 | 29.0 | 0.00 | 0.38 | 0.00 | 28 | 1017.4 |
| 20260507173017 | 16 | 215 | 9.7 | 29.0 | 0.00 | 0.38 | 0.00 | 30 | 1017.8 |
| 20260507171519 | 16 | 233 | 17.7 | 29.0 | 0.00 | 0.38 | 0.00 | 28 | 1018.1 |
| 20260507170011 | 15 | 217 | 12.9 | 29.0 | 0.00 | 0.48 | 0.00 | 28 | 1018.4 |
| 20260507164509 | 15 | 244 | 6.4 | 19.3 | 0.00 | 0.48 | 0.00 | 34 | 1018.6 |
| 20260507163003 | 14 | 211 | 11.3 | 32.2 | 0.00 | 0.48 | 0.00 | 35 | 1018.8 |
| 20260507161608 | 13 | 234 | 12.9 | 33.8 | 0.00 | 0.48 | 0.00 | 35 | 1019.0 |
| 20260507160056 | 13 | 240 | 16.1 | 32.2 | 0.00 | 0.58 | 0.00 | 35 | 1019.3 |
| 20260507154552 | 12 | 246 | 11.3 | 30.6 | 0.00 | 0.58 | 0.00 | 38 | 1019.3 |
| 20260507153050 | 12 | 271 | 8.0 | 25.7 | 0.00 | 0.58 | 0.00 | 38 | 1019.6 |
| 20260507151546 | 11 | 252 | 9.7 | 30.6 | 0.00 | 0.58 | 0.00 | 37 | 1019.9 |
| 20260507150046 | 11 | 234 | 9.7 | 25.7 | 0.00 | 0.58 | 0.00 | 39 | 1020.2 |
| 20260507144540 | 11 | 246 | 11.3 | 25.7 | 0.00 | 0.58 | 0.00 | 37 | 1020.1 |
| 20260507143055 | 9 | 188 | 8.0 | 22.5 | 0.00 | 0.58 | 0.00 | 43 | 1020.4 |
| 20260507141547 | 8 | 271 | 4.8 | 19.3 | 0.00 | 0.58 | 0.00 | 49 | 1020.7 |
| 20260507140028 | 7 | 318 | 8.0 | 25.7 | 0.00 | 0.61 | 0.00 | 49 | 1021.0 |
| 20260507134524 | 6 | 310 | 4.8 | 14.5 | 0.00 | 0.61 | 0.00 | 56 | 1021.3 |
| 20260507133020 | 5 | 274 | 4.8 | 14.5 | 0.00 | 0.61 | 0.00 | 57 | 1021.5 |
| 20260507131515 | 5 | 240 | 3.2 | 16.1 | 0.00 | 0.61 | 0.00 | 61 | 1021.7 |
| 20260507130029 | 4 | 279 | 3.2 | 11.3 | 0.00 | 0.61 | 0.00 | 63 | 1021.7 |
| 20260507124511 | 3 | 260 | 0.0 | 12.9 | 0.00 | 0.61 | 0.00 | 64 | 1021.6 |
| 20260507123006 | 3 | 269 | 3.2 | 20.9 | 0.00 | 0.61 | 0.00 | 65 | 1021.6 |
| 20260507121504 | 3 | 315 | 4.8 | 16.1 | 0.00 | 0.61 | 0.00 | 66 | 1021.6 |
| 20260507120001 | 3 | 263 | 3.2 | 16.1 | 0.00 | 0.61 | 0.00 | 67 | 1021.5 |
| 20260507114600 | 2 | 261 | 3.2 | 11.3 | 0.00 | 0.61 | 0.00 | 70 | 1021.4 |
| 20260507113056 | 2 | 252 | 1.6 | 9.7 | 0.00 | 0.61 | 0.00 | 72 | 1021.6 |
| 20260507111555 | 1 | 154 | 0.0 | 12.9 | 0.00 | 0.61 | 0.00 | 75 | 1021.6 |
| 20260507110052 | 1 | 305 | 3.2 | 12.9 | 0.00 | 0.61 | 0.00 | 78 | 1021.5 |
| 20260507104551 | 1 | 286 | 0.0 | 1.6 | 0.00 | 0.61 | 0.00 | 79 | 1021.6 |
| 20260507103045 | 0 | 296 | 0.0 | 9.7 | 0.00 | 0.61 | 0.00 | 83 | 1021.8 |
| 20260507101546 | 0 | 302 | 0.0 | 0.0 | 0.00 | 0.61 | 0.00 | 86 | 1021.9 |
| 20260507100053 | 0 | 302 | 0.0 | 3.2 | 0.00 | 0.61 | 0.00 | 88 | 1022.0 |
| 20260507094541 | 0 | 302 | 0.0 | 0.0 | 0.00 | 0.61 | 0.00 | 88 | 1022.0 |
| 20260507093042 | 0 | 302 | 0.0 | 0.0 | 0.00 | 0.61 | 0.00 | 88 | 1022.2 |
| 20260507091541 | 0 | 302 | 0.0 | 3.2 | 0.00 | 0.61 | 0.00 | 87 | 1022.4 |
| 20260507090044 | 0 | 302 | 0.0 | 0.0 | 0.00 | 0.66 | 0.00 | 87 | 1022.4 |
| 20260507084547 | 0 | 302 | 0.0 | 0.0 | 0.00 | 0.66 | 0.00 | 85 | 1022.5 |
| 20260507083037 | 0 | 302 | 0.0 | 4.8 | 0.00 | 0.66 | 0.00 | 85 | 1022.5 |
| 20260507081536 | 1 | 302 | 0.0 | 6.4 | 0.00 | 0.66 | 0.00 | 86 | 1022.3 |
| 20260507080033 | 0 | 339 | 3.2 | 6.4 | 0.00 | 0.81 | 0.00 | 90 | 1022.6 |
| 20260507074530 | 0 | 20 | 0.0 | 0.0 | 0.00 | 0.81 | 0.00 | 90 | 1022.6 |
| 20260507073032 | 0 | 20 | 1.6 | 4.8 | 0.00 | 0.81 | 0.00 | 91 | 1022.8 |
| 20260507071534 | 0 | 24 | 4.8 | 6.4 | 0.00 | 0.81 | 0.00 | 91 | 1022.5 |
| 20260507070031 | 0 | 339 | 0.0 | 6.4 | 0.00 | 0.86 | 0.00 | 90 | 1022.6 |
| 20260507064535 | 0 | 188 | 0.0 | 0.0 | 0.00 | 0.86 | 0.00 | 91 | 1022.7 |
| 20260507063022 | 0 | 188 | 0.0 | 0.0 | 0.00 | 0.86 | 0.00 | 90 | 1022.7 |
| 20260507061520 | 0 | 188 | 0.0 | 0.0 | 0.00 | 0.86 | 0.00 | 90 | 1022.7 |
| 20260507060018 | 0 | 188 | 0.0 | 0.0 | 0.00 | 0.89 | 0.86 | 89 | 1022.5 |
| 20260507054518 | 0 | 188 | 0.0 | 0.0 | 0.00 | 0.89 | 0.86 | 88 | 1022.5 |
| 20260507053017 | 0 | 188 | 0.0 | 0.0 | 0.00 | 0.89 | 0.86 | 88 | 1022.5 |
| 20260507051517 | 1 | 188 | 0.0 | 0.0 | 0.00 | 0.89 | 0.86 | 88 | 1022.4 |
| 20260507050033 | 1 | 188 | 0.0 | 0.0 | 0.00 | 0.89 | 0.86 | 88 | 1022.4 |
| 20260507044516 | 1 | 188 | 0.0 | 0.0 | 0.00 | 0.89 | 0.86 | 88 | 1022.3 |
| 20260507043015 | 1 | 188 | 0.0 | 0.0 | 0.00 | 0.89 | 0.86 | 87 | 1022.4 |
| 20260507041523 | 1 | 188 | 0.0 | 0.0 | 0.00 | 0.89 | 0.86 | 85 | 1022.4 |
| 20260507040013 | 2 | 188 | 0.0 | 0.0 | 0.00 | 0.89 | 0.86 | 84 | 1022.3 |
| 20260507034512 | 2 | 188 | 0.0 | 0.0 | 0.00 | 0.89 | 0.86 | 82 | 1022.3 |
| 20260507033012 | 2 | 188 | 0.0 | 3.2 | 0.00 | 0.89 | 0.86 | 82 | 1022.3 |
| 20260507031511 | 2 | 188 | 0.0 | 4.8 | 0.00 | 0.89 | 0.86 | 80 | 1022.2 |
| 20260507030020 | 3 | 196 | 3.2 | 8.0 | 0.00 | 0.89 | 0.86 | 79 | 1022.2 |
| 20260507024514 | 3 | 204 | 6.4 | 11.3 | 0.00 | 0.89 | 0.86 | 78 | 1022.0 |
| 20260507023009 | 3 | 194 | 3.2 | 8.0 | 0.00 | 0.89 | 0.86 | 77 | 1022.0 |
| 20260507021509 | 3 | 176 | 0.0 | 6.4 | 0.00 | 0.89 | 0.86 | 77 | 1022.0 |
| 20260507020011 | 4 | 176 | 1.6 | 4.8 | 0.00 | 0.89 | 0.86 | 76 | 1022.0 |
| 20260507014512 | 4 | 176 | 0.0 | 3.2 | 0.00 | 0.89 | 0.86 | 72 | 1022.0 |
| 20260507013012 | 5 | 176 | 0.0 | 6.4 | 0.00 | 0.89 | 0.86 | 68 | 1021.9 |
| 20260507011508 | 5 | 136 | 3.2 | 8.0 | 0.00 | 0.89 | 0.86 | 68 | 1021.9 |
| 20260507010008 | 5 | 176 | 3.2 | 9.7 | 0.00 | 1.04 | 0.86 | 66 | 1021.8 |
| 20260507004506 | 5 | 144 | 4.8 | 6.4 | 0.00 | 1.04 | 0.86 | 69 | 1021.7 |
| 20260507003005 | 5 | 238 | 1.6 | 8.0 | 0.00 | 1.04 | 0.86 | 67 | 1021.8 |
| 20260507001504 | 5 | 234 | 4.8 | 9.7 | 0.00 | 1.04 | 0.86 | 70 | 1021.9 |
| 20260507000003 | 5 | 187 | 3.2 | 9.7 | 0.00 | 1.35 | 0.86 | 72 | 1021.9 |
| 20260506234601 | 5 | 149 | 1.6 | 9.7 | 0.00 | 1.35 | 0.86 | 78 | 1021.8 |
| 20260506233100 | 5 | 164 | 6.4 | 11.3 | 0.00 | 1.35 | 0.86 | 81 | 1021.8 |
| 20260506231609 | 4 | 248 | 4.8 | 8.0 | 0.00 | 1.35 | 0.86 | 85 | 1021.8 |
| 20260506230106 | 3 | 224 | 0.0 | 8.0 | 0.00 | 1.35 | 0.86 | 87 | 1021.8 |
| 20260506224551 | 3 | 234 | 1.6 | 4.8 | 0.00 | 1.35 | 0.86 | 90 | 1021.9 |
| 20260506223050 | 2 | 229 | 0.0 | 4.8 | 0.05 | 1.35 | 0.86 | 90 | 1021.9 |
| 20260506221608 | 2 | 228 | 3.2 | 8.0 | 0.08 | 1.35 | 0.86 | 91 | 1022.0 |
| 20260506220105 | 2 | 200 | 0.0 | 4.8 | 0.08 | 1.35 | 0.86 | 92 | 1022.0 |
| 20260506214550 | 1 | 92 | 1.6 | 8.0 | 0.08 | 1.35 | 0.86 | 91 | 1021.9 |
| 20260506213103 | 1 | 140 | 4.8 | 8.0 | 0.03 | 1.30 | 0.81 | 89 | 1022.0 |
| 20260506211546 | 2 | 34 | 11.3 | 19.3 | 0.00 | 1.27 | 0.79 | 83 | 1021.9 |
| 20260506210054 | 3 | 133 | 4.8 | 9.7 | 0.00 | 1.27 | 0.79 | 83 | 1021.5 |
| 20260506204543 | 3 | 113 | 1.6 | 11.3 | 0.00 | 1.27 | 0.79 | 87 | 1021.4 |
| 20260506203041 | 2 | 96 | 6.4 | 14.5 | 0.00 | 1.27 | 0.79 | 88 | 1021.6 |
| 20260506201546 | 2 | 87 | 6.4 | 12.9 | 0.03 | 1.27 | 0.79 | 91 | 1021.7 |
| 20260506200040 | 1 | 26 | 1.6 | 9.7 | 0.10 | 1.27 | 0.79 | 92 | 1021.6 |
| 20260506194540 | 1 | 90 | 3.2 | 9.7 | 0.15 | 1.27 | 0.79 | 94 | 1021.5 |
| 20260506193039 | 1 | 79 | 3.2 | 6.4 | 0.15 | 1.27 | 0.79 | 94 | 1021.8 |